STARLINK-31332, 59566

Orbit data source: Space-Track

STARLINK-31332, 59566 is a payload satellite owned by SpaceX/Seattle (US) in LEO that was launched on Tue, 23 Apr 2024 UTC via an FALCON 9 launch vehicle from the Air Force Eastern Test Range (AFETR). Payload-class satellites include a variety of spacecraft equipped with specific instruments for various scientific and technological missions. These include communications satellites like Starlink; space stations such as the ISS; scientific satellites like the Hubble; Earth observation satellites from companies like Planet Labs, Umbra, and HawkEye 360; GPS; miniature CubeSats for education and research; and military/defense satellites.

Loading next visibility...
Identifier
59566, 2024-076C
Orbit
LEO
Country
Flag of USUS
Related business
Manufacturer
SpaceX/Seattle
Mission
Operational spacecraft
Bus & Motor
STARLINK V2M, Unknown motor
Mass
730 kg wet, ~700 kg dry
Launch date (UTC)
2024-04-23 (1 year ago)
Launch vehicle
FALCON 9
Launch site
Air Force Eastern Test Range (AFETR)
Object type
Payload
Rocket body
Debris
Shape & HBR
Unknown
Radar Cross Section
Large (>1 m²)

Expand to show TLE details & history
Last TLE update: 1 day ago

TLE from 1 day ago
0 STARLINK-31332
1 59566U 24076C   25258.11636065  .00003036  00000-0  11975-3 0  9998
2 59566  43.0041 280.3193 0001064 285.6486  74.4248 15.27592276 79653
Epoch: 2025-09-15T02:47Z
TLE epoch observation values (Epoch: 2025-09-15T02:47:33.56Z)
Latitude
-0.00002°
Longitude
-115.89619°
Altitude
482.592 km
Speed
7.626 km/s
True Right ascension
18h 41m 16s
True Declination
0° 00' 00"
Sunlit
Object was in daylight at epoch
Visualization orbit readout
Latitude
Unknown
Longitude
Unknown
Altitude
Unknown
Speed
Unknown
Apparent Right ascension
Unknown
Apparent Declination
Unknown
Sunlit
N/A
Visualization observer readout
Local Sidereal Time
20:04:06
Azimuth
Unknown
Elevation
Unknown
Doppler factor
Unknown
Orbital elements
Apogee altitude
485.687 km
Perigee altitude
484.227 km
Semi-major axis
6,863.094 km
Eccentricity
0.00011
Inclination
43.0041°
RAAN
280.3193°
Arg. of periapsis
285.6486°
True anomaly
74.43655°
Mean anomaly
74.4248°
Eccentric anomaly
74.43067°
Mean motion
3.81736 °/min
Orbital period
94.31 mins
BSTAR
0.00011975
Loading maneuver chart data...
Computing Atmospheric mass density...
Loading historical data...
Loading historical data...
Loading historical data...
Loading historical data...
Loading historical data...
Loading historical data...
Loading historical data...

Documentation

Showing up to 5 results
|